TEX

operational
NORAD ID: 20561 Int'l Des: 1990-031 Owner: AFSSD2 Country: US
LEOCIRCULARPOLAR

About TEX

Description loading...

Live Position

Loading 3D Globe...

Upcoming Passes

Altitude History

Altitude vs Time

uPlot chart will show altitude changes over time

Two-Line Element Set

1 20561U 90031B 26063.05548898 .00000872 00000-0 12788-3 0 9997
2 20561 89.8423 266.7998 0068954 70.5801 290.2854 14.73112652 99707
Epoch: Mar 4, 2026 • Age: 13 hours

Current Status

Altitude 625.0 km
Velocity 7.56 km/s
Sub-Earth Point 14.64°N, 87.6°W
Launch Date Apr 11, 1990
Age 35.8 years
Type other

Technical Details

Classification Payload
Mass 67.00 kg
Dry Mass 67.00 kg
Total Mass 67.00 kg
Length 0.40 m
Diameter 0.60 m
Span 6.10 m
Shape Cyl + Ant
Manufacturer DSI
Bus Type Ministar
Phase Status In Orbit
Owner/State AFSSD2/US

Large Constellations

Loading constellations...